Time,TemperatureF,DewpointF,PressureIn,WindDirection,WindDirectionDegrees,WindSpeedMPH,WindSpeedGustMPH,Humidity,HourlyPrecipIn,Conditions,Clouds,dailyrainin,SoftwareType,DateUTC
2013-01-30 00:02:00,64.5,58.2,29.91,ESE,120,1.0,-999.0,80,0.00,,,0.00,Wunderground v.1.12,2013-01-30 05:02:00,
2013-01-30 00:04:00,64.5,58.2,29.91,ENE,75,0.0,-999.0,80,0.00,,,0.00,Wunderground v.1.12,2013-01-30 05:04:00,
2013-01-30 00:07:00,64.5,58.2,29.91,SW,222,2.0,-999.0,80,0.00,,,0.00,Wunderground v.1.12,2013-01-30 05:07:00,
2013-01-30 00:08:00,64.5,58.2,29.91,ENE,62,0.0,-999.0,80,0.00,,,0.00,Wunderground v.1.12,2013-01-30 05:08:00,
2013-01-30 00:14:00,64.5,58.2,29.89,ESE,106,3.0,-999.0,80,0.00,,,0.00,Wunderground v.1.12,2013-01-30 05:14:00,
2013-01-30 00:20:00,64.3,58.0,29.89,ENE,72,0.0,-999.0,80,0.00,,,0.00,Wunderground v.1.12,2013-01-30 05:20:00,
2013-01-30 00:26:00,64.3,58.0,29.89,ESE,123,0.0,-999.0,80,0.00,,,0.00,Wunderground v.1.12,2013-01-30 05:26:00,
2013-01-30 00:31:00,64.3,58.0,29.88,East,99,0.0,-999.0,80,0.00,,,0.00,Wunderground v.1.12,2013-01-30 05:31:00,
2013-01-30 00:37:00,64.3,57.6,29.88,ENE,72,0.0,-999.0,79,0.00,,,0.00,Wunderground v.1.12,2013-01-30 05:37:00,
2013-01-30 00:43:00,64.2,57.9,29.88,NE,36,0.0,-999.0,80,0.00,,,0.00,Wunderground v.1.12,2013-01-30 05:43:00,
2013-01-30 00:48:00,64.2,57.9,29.88,NE,54,4.0,-999.0,80,0.00,,,0.00,Wunderground v.1.12,2013-01-30 05:48:00,
2013-01-30 00:53:00,64.0,57.7,29.88,NE,48,0.0,-999.0,80,0.00,,,0.00,Wunderground v.1.12,2013-01-30 05:53:00,
2013-01-30 00:59:00,64.0,57.7,29.87,SE,125,5.0,-999.0,80,0.00,,,0.00,Wunderground v.1.12,2013-01-30 05:59:00,
2013-01-30 01:05:00,64.2,57.9,29.87,East,89,1.0,-999.0,80,0.00,,,0.00,Wunderground v.1.12,2013-01-30 06:05:00,
2013-01-30 01:11:00,64.2,57.9,29.87,NNE,23,0.0,-999.0,80,0.00,,,0.00,Wunderground v.1.12,2013-01-30 06:11:00,
2013-01-30 01:16:00,64.3,58.0,29.87,East,82,2.0,-999.0,80,0.00,,,0.00,Wunderground v.1.12,2013-01-30 06:16:00,
2013-01-30 01:22:00,64.3,58.0,29.87,SE,139,0.0,-999.0,80,0.00,,,0.00,Wunderground v.1.12,2013-01-30 06:22:00,
2013-01-30 01:27:00,64.5,58.5,29.85,ENE,65,3.0,-999.0,81,0.00,,,0.00,Wunderground v.1.12,2013-01-30 06:27:00,
2013-01-30 01:34:00,64.5,58.5,29.85,ESE,120,0.0,-999.0,81,0.00,,,0.00,Wunderground v.1.12,2013-01-30 06:34:00,
2013-01-30 01:40:00,64.5,58.5,29.85,SSE,149,0.0,-999.0,81,0.00,,,0.00,Wunderground v.1.12,2013-01-30 06:40:00,
2013-01-30 01:45:00,64.7,58.7,29.85,NE,40,0.0,-999.0,81,0.00,,,0.00,Wunderground v.1.12,2013-01-30 06:45:00,
2013-01-30 01:51:00,64.7,58.7,29.85,NE,40,1.0,-999.0,81,0.00,,,0.00,Wunderground v.1.12,2013-01-30 06:51:00,
2013-01-30 01:56:00,64.7,58.7,29.85,ENE,67,0.0,-999.0,81,0.00,,,0.00,Wunderground v.1.12,2013-01-30 06:56:00,
2013-01-30 02:01:00,64.7,58.7,29.83,SSW,205,1.0,-999.0,81,0.00,,,0.00,Wunderground v.1.12,2013-01-30 07:01:00,
2013-01-30 02:06:00,64.8,58.8,29.83,ENE,71,0.0,-999.0,81,0.00,,,0.00,Wunderground v.1.12,2013-01-30 07:06:00,
2013-01-30 02:11:00,64.8,58.8,29.83,ENE,74,0.0,-999.0,81,0.00,,,0.00,Wunderground v.1.12,2013-01-30 07:11:00,
2013-01-30 02:16:00,64.8,59.2,29.83,East,99,2.0,-999.0,82,0.00,,,0.00,Wunderground v.1.12,2013-01-30 07:16:00,
2013-01-30 02:21:00,64.8,59.2,29.83,SE,133,1.0,-999.0,82,0.00,,,0.00,Wunderground v.1.12,2013-01-30 07:21:00,
2013-01-30 02:26:00,64.8,59.2,29.83,NNE,30,0.0,-999.0,82,0.00,,,0.00,Wunderground v.1.12,2013-01-30 07:26:00,
2013-01-30 02:31:00,65.0,59.4,29.82,East,92,0.0,-999.0,82,0.00,,,0.00,Wunderground v.1.12,2013-01-30 07:31:00,
2013-01-30 02:36:00,65.0,59.4,29.82,NE,41,0.0,-999.0,82,0.00,,,0.00,Wunderground v.1.12,2013-01-30 07:36:00,
2013-01-30 02:41:00,65.0,59.7,29.82,NE,41,0.0,-999.0,83,0.00,,,0.00,Wunderground v.1.12,2013-01-30 07:41:00,
2013-01-30 02:46:00,65.0,59.7,29.82,ENE,68,0.0,-999.0,83,0.00,,,0.00,Wunderground v.1.12,2013-01-30 07:46:00,
2013-01-30 02:51:00,65.0,59.7,29.82,NE,51,0.0,-999.0,83,0.00,,,0.00,Wunderground v.1.12,2013-01-30 07:51:00,
2013-01-30 02:56:00,65.0,59.7,29.82,ESE,110,3.0,-999.0,83,0.00,,,0.00,Wunderground v.1.12,2013-01-30 07:56:00,
2013-01-30 03:01:00,65.2,59.9,29.82,ENE,77,0.0,-999.0,83,0.00,,,0.00,Wunderground v.1.12,2013-01-30 08:01:00,
2013-01-30 03:06:00,65.2,59.9,29.82,NW,325,0.0,-999.0,83,0.00,,,0.00,Wunderground v.1.12,2013-01-30 08:06:00,
2013-01-30 03:11:00,65.2,59.9,29.81,SE,134,0.0,-999.0,83,0.00,,,0.00,Wunderground v.1.12,2013-01-30 08:11:00,
2013-01-30 03:16:00,65.2,60.2,29.81,NE,48,0.0,-999.0,84,0.00,,,0.00,Wunderground v.1.12,2013-01-30 08:16:00,
2013-01-30 03:21:00,65.2,60.2,29.81,NW,321,0.0,-999.0,84,0.00,,,0.00,Wunderground v.1.12,2013-01-30 08:21:00,
2013-01-30 03:26:00,65.3,60.3,29.81,East,81,0.0,-999.0,84,0.00,,,0.00,Wunderground v.1.12,2013-01-30 08:26:00,
2013-01-30 03:31:00,65.3,60.3,29.81,South,178,2.0,-999.0,84,0.00,,,0.00,Wunderground v.1.12,2013-01-30 08:31:00,
2013-01-30 03:36:00,65.3,60.3,29.81,ESE,122,0.0,-999.0,84,0.00,,,0.00,Wunderground v.1.12,2013-01-30 08:36:00,
2013-01-30 03:41:00,65.5,60.5,29.80,ENE,75,2.0,-999.0,84,0.00,,,0.00,Wunderground v.1.12,2013-01-30 08:41:00,
2013-01-30 03:46:00,65.5,60.5,29.80,ENE,72,2.0,-999.0,84,0.00,,,0.00,Wunderground v.1.12,2013-01-30 08:46:00,
2013-01-30 03:51:00,65.5,60.5,29.80,East,95,0.0,-999.0,84,0.00,,,0.00,Wunderground v.1.12,2013-01-30 08:51:00,
2013-01-30 03:56:00,65.6,60.6,29.80,ESE,116,0.0,-999.0,84,0.00,,,0.00,Wunderground v.1.12,2013-01-30 08:56:00,
2013-01-30 04:01:00,65.6,61.0,29.80,West,270,0.0,-999.0,85,0.00,,,0.00,Wunderground v.1.12,2013-01-30 09:01:00,
2013-01-30 04:06:00,65.8,61.2,29.80,East,94,0.0,-999.0,85,0.00,,,0.00,Wunderground v.1.12,2013-01-30 09:06:00,
2013-01-30 04:11:00,65.8,61.2,29.79,ENE,68,0.0,-999.0,85,0.00,,,0.00,Wunderground v.1.12,2013-01-30 09:11:00,
2013-01-30 04:16:00,65.8,61.2,29.79,NE,36,0.0,-999.0,85,0.00,,,0.00,Wunderground v.1.12,2013-01-30 09:16:00,
2013-01-30 04:22:00,65.8,61.2,29.79,ENE,71,0.0,-999.0,85,0.00,,,0.00,Wunderground v.1.12,2013-01-30 09:22:00,
2013-01-30 04:27:00,65.8,61.2,29.79,NNE,22,0.0,-999.0,85,0.00,,,0.00,Wunderground v.1.12,2013-01-30 09:27:00,
2013-01-30 04:32:00,65.8,61.2,29.79,SE,137,0.0,-999.0,85,0.00,,,0.00,Wunderground v.1.12,2013-01-30 09:32:00,
2013-01-30 04:37:00,65.8,61.2,29.79,ENE,58,0.0,-999.0,85,0.00,,,0.00,Wunderground v.1.12,2013-01-30 09:37:00,
2013-01-30 04:42:00,65.8,61.2,29.77,North,5,0.0,-999.0,85,0.00,,,0.00,Wunderground v.1.12,2013-01-30 09:42:00,
2013-01-30 04:47:00,65.8,61.2,29.77,SE,130,0.0,-999.0,85,0.00,,,0.00,Wunderground v.1.12,2013-01-30 09:47:00,
2013-01-30 04:52:00,66.0,61.7,29.77,East,86,0.0,-999.0,86,0.00,,,0.00,Wunderground v.1.12,2013-01-30 09:52:00,
2013-01-30 04:57:00,66.0,61.7,29.76,ENE,68,0.0,-999.0,86,0.00,,,0.00,Wunderground v.1.12,2013-01-30 09:57:00,
2013-01-30 05:02:00,66.0,62.0,29.76,East,84,0.0,-999.0,87,0.00,,,0.00,Wunderground v.1.12,2013-01-30 10:02:00,
2013-01-30 05:07:00,65.8,61.8,29.76,ESE,105,0.0,-999.0,87,0.00,,,0.00,Wunderground v.1.12,2013-01-30 10:07:00,
2013-01-30 05:12:00,65.8,61.8,29.76,East,92,0.0,-999.0,87,0.00,,,0.00,Wunderground v.1.12,2013-01-30 10:12:00,
2013-01-30 05:17:00,65.8,62.1,29.76,NW,314,0.0,-999.0,88,0.00,,,0.00,Wunderground v.1.12,2013-01-30 10:17:00,
2013-01-30 05:22:00,65.6,61.9,29.76,East,98,0.0,-999.0,88,0.00,,,0.00,Wunderground v.1.12,2013-01-30 10:22:00,
2013-01-30 05:27:00,65.6,61.9,29.76,NE,38,0.0,-999.0,88,0.00,,,0.00,Wunderground v.1.12,2013-01-30 10:27:00,
2013-01-30 05:32:00,65.6,62.3,29.76,East,79,0.0,-999.0,89,0.00,,,0.00,Wunderground v.1.12,2013-01-30 10:32:00,
2013-01-30 05:37:00,65.5,62.2,29.76,NE,47,0.0,-999.0,89,0.00,,,0.00,Wunderground v.1.12,2013-01-30 10:37:00,
2013-01-30 05:42:00,65.5,62.2,29.75,WNW,288,0.0,-999.0,89,0.00,,,0.00,Wunderground v.1.12,2013-01-30 10:42:00,
2013-01-30 05:47:00,65.3,62.3,29.75,ENE,60,0.0,-999.0,90,0.00,,,0.00,Wunderground v.1.12,2013-01-30 10:47:00,
2013-01-30 05:52:00,65.3,62.3,29.75,East,85,0.0,-999.0,90,0.00,,,0.00,Wunderground v.1.12,2013-01-30 10:52:00,
2013-01-30 05:57:00,65.3,62.3,29.75,SSW,195,0.0,-999.0,90,0.00,,,0.00,Wunderground v.1.12,2013-01-30 10:57:00,
2013-01-30 06:02:00,65.2,62.2,29.75,SW,218,0.0,-999.0,90,0.00,,,0.00,Wunderground v.1.12,2013-01-30 11:02:00,
2013-01-30 06:07:00,65.3,62.6,29.75,NW,324,0.0,-999.0,91,0.00,,,0.00,Wunderground v.1.12,2013-01-30 11:07:00,
2013-01-30 06:12:00,65.3,62.6,29.74,East,86,0.0,-999.0,91,0.00,,,0.00,Wunderground v.1.12,2013-01-30 11:12:00,
2013-01-30 06:17:00,65.2,62.5,29.74,East,89,0.0,-999.0,91,0.00,,,0.00,Wunderground v.1.12,2013-01-30 11:17:00,
2013-01-30 06:22:00,65.2,62.5,29.74,ENE,64,0.0,-999.0,91,0.00,,,0.00,Wunderground v.1.12,2013-01-30 11:22:00,
2013-01-30 06:27:00,65.2,62.8,29.74,East,98,0.0,-999.0,92,0.00,,,0.00,Wunderground v.1.12,2013-01-30 11:27:00,
2013-01-30 06:32:00,65.2,62.8,29.74,East,84,0.0,-999.0,92,0.00,,,0.00,Wunderground v.1.12,2013-01-30 11:32:00,
2013-01-30 06:37:00,65.2,62.8,29.74,ESE,110,1.0,-999.0,92,0.00,,,0.00,Wunderground v.1.12,2013-01-30 11:37:00,
2013-01-30 06:42:00,65.2,62.8,29.73,NE,46,1.0,-999.0,92,0.00,,,0.00,Wunderground v.1.12,2013-01-30 11:42:00,
2013-01-30 06:47:00,65.2,62.8,29.73,ESE,112,0.0,-999.0,92,0.00,,,0.00,Wunderground v.1.12,2013-01-30 11:47:00,
2013-01-30 06:52:00,65.2,62.8,29.73,ESE,115,0.0,-999.0,92,0.00,,,0.00,Wunderground v.1.12,2013-01-30 11:52:00,
2013-01-30 06:57:00,65.2,62.8,29.73,West,267,0.0,-999.0,92,0.00,,,0.00,Wunderground v.1.12,2013-01-30 11:57:00,
2013-01-30 07:02:00,65.3,62.9,29.73,ENE,57,0.0,-999.0,92,0.00,,,0.00,Wunderground v.1.12,2013-01-30 12:02:00,
2013-01-30 07:07:00,65.3,62.9,29.73,East,88,1.0,-999.0,92,0.00,,,0.00,Wunderground v.1.12,2013-01-30 12:07:00,
2013-01-30 07:12:00,65.3,62.9,29.72,SW,235,0.0,-999.0,92,0.00,,,0.00,Wunderground v.1.12,2013-01-30 12:12:00,
2013-01-30 07:17:00,65.3,62.9,29.72,ESE,110,0.0,-999.0,92,0.00,,,0.00,Wunderground v.1.12,2013-01-30 12:17:00,
2013-01-30 07:22:00,65.3,62.9,29.72,NE,36,0.0,-999.0,92,0.00,,,0.00,Wunderground v.1.12,2013-01-30 12:22:00,
2013-01-30 07:27:00,65.3,62.9,29.71,ESE,112,0.0,-999.0,92,0.00,,,0.00,Wunderground v.1.12,2013-01-30 12:27:00,
2013-01-30 07:32:00,65.3,62.9,29.71,West,263,0.0,-999.0,92,0.00,,,0.00,Wunderground v.1.12,2013-01-30 12:32:00,
2013-01-30 07:37:00,65.3,62.9,29.71,NE,48,0.0,-999.0,92,0.00,,,0.00,Wunderground v.1.12,2013-01-30 12:37:00,
2013-01-30 07:42:00,65.3,62.9,29.71,West,270,4.0,-999.0,92,0.00,,,0.00,Wunderground v.1.12,2013-01-30 12:42:00,
2013-01-30 07:47:00,65.3,62.9,29.71,NW,315,0.0,-999.0,92,0.00,,,0.00,Wunderground v.1.12,2013-01-30 12:47:00,
2013-01-30 07:52:00,65.3,62.9,29.71,NE,50,1.0,-999.0,92,0.00,,,0.00,Wunderground v.1.12,2013-01-30 12:52:00,
2013-01-30 07:57:00,65.3,62.9,29.71,South,170,3.0,-999.0,92,0.00,,,0.00,Wunderground v.1.12,2013-01-30 12:57:00,
2013-01-30 08:02:00,65.5,63.4,29.71,NW,310,0.0,-999.0,93,0.00,,,0.00,Wunderground v.1.12,2013-01-30 13:02:00,
2013-01-30 08:07:00,65.5,63.4,29.71,NE,48,0.0,-999.0,93,0.00,,,0.00,Wunderground v.1.12,2013-01-30 13:07:00,
2013-01-30 08:12:00,65.5,63.4,29.71,ESE,110,2.0,-999.0,93,18.00,,,0.67,Wunderground v.1.12,2013-01-30 13:12:00,
2013-01-30 08:17:00,65.6,63.2,29.71,SW,232,0.0,-999.0,92,16.94,,,1.53,Wunderground v.1.12,2013-01-30 13:17:00,
2013-01-30 08:22:00,65.6,63.2,29.71,South,187,1.0,-999.0,92,15.16,,,2.34,Wunderground v.1.12,2013-01-30 13:22:00,
2013-01-30 08:27:00,65.8,63.4,29.71,NE,41,0.0,-999.0,92,41.14,,,3.30,Wunderground v.1.12,2013-01-30 13:27:00,
2013-01-30 08:32:00,65.8,63.4,29.71,NNE,26,0.0,-999.0,92,41.14,,,3.50,Wunderground v.1.12,2013-01-30 13:32:00,
2013-01-30 08:37:00,65.8,63.4,29.71,ENE,78,1.0,-999.0,92,0.15,,,3.52,Wunderground v.1.12,2013-01-30 13:37:00,
2013-01-30 08:42:00,66.0,63.6,29.70,ENE,74,0.0,-999.0,92,0.17,,,3.60,Wunderground v.1.12,2013-01-30 13:42:00,
2013-01-30 08:48:00,66.0,63.6,29.70,SSE,166,1.0,-999.0,92,26.18,,,4.07,Wunderground v.1.12,2013-01-30 13:48:00,
2013-01-30 08:53:00,66.0,63.6,29.70,NNE,31,0.0,-999.0,92,0.15,,,4.15,Wunderground v.1.12,2013-01-30 13:53:00,
2013-01-30 08:58:00,66.0,63.6,29.69,East,84,0.0,-999.0,92,0.06,,,4.15,Wunderground v.1.12,2013-01-30 13:58:00,
2013-01-30 09:04:00,66.1,63.7,29.69,ENE,68,2.0,-999.0,92,0.04,,,4.15,Wunderground v.1.12,2013-01-30 14:04:00,
2013-01-30 09:09:00,66.1,63.7,29.69,NNW,345,0.0,-999.0,92,0.00,,,4.15,Wunderground v.1.12,2013-01-30 14:09:00,
2013-01-30 09:14:00,66.1,63.7,29.68,East,94,0.0,-999.0,92,0.00,,,4.15,Wunderground v.1.12,2013-01-30 14:14:00,
2013-01-30 09:19:00,66.1,63.7,29.68,East,88,0.0,-999.0,92,0.00,,,4.15,Wunderground v.1.12,2013-01-30 14:19:00,
2013-01-30 09:24:00,66.1,63.7,29.68,SE,129,0.0,-999.0,92,0.00,,,4.15,Wunderground v.1.12,2013-01-30 14:24:00,
2013-01-30 09:29:00,66.1,63.7,29.68,West,276,0.0,-999.0,92,0.00,,,4.15,Wunderground v.1.12,2013-01-30 14:29:00,
2013-01-30 09:34:00,66.3,63.9,29.68,NE,51,0.0,-999.0,92,0.00,,,4.15,Wunderground v.1.12,2013-01-30 14:34:00,
2013-01-30 09:39:00,66.4,64.0,29.68,West,273,0.0,-999.0,92,0.00,,,4.15,Wunderground v.1.12,2013-01-30 14:39:00,
2013-01-30 09:44:00,66.4,64.0,29.68,ENE,77,1.0,-999.0,92,0.00,,,4.15,Wunderground v.1.12,2013-01-30 14:44:00,
2013-01-30 09:50:00,66.4,64.0,29.68,NNW,331,0.0,-999.0,92,0.00,,,4.15,Wunderground v.1.12,2013-01-30 14:50:00,
2013-01-30 09:55:00,66.6,63.9,29.68,NNE,12,0.0,-999.0,91,0.00,,,4.15,Wunderground v.1.12,2013-01-30 14:55:00,
2013-01-30 10:00:00,66.8,64.1,29.68,NE,40,0.0,-999.0,91,0.00,,,4.15,Wunderground v.1.12,2013-01-30 15:00:00,
2013-01-30 10:05:00,66.8,63.8,29.68,NE,50,1.0,-999.0,90,0.00,,,4.15,Wunderground v.1.12,2013-01-30 15:05:00,
2013-01-30 10:10:00,66.9,63.9,29.68,NNE,24,0.0,-999.0,90,0.00,,,4.15,Wunderground v.1.12,2013-01-30 15:10:00,
2013-01-30 10:15:00,66.9,63.6,29.66,West,278,0.0,-999.0,89,0.00,,,4.15,Wunderground v.1.12,2013-01-30 15:15:00,
2013-01-30 10:20:00,67.1,63.7,29.66,NNE,22,0.0,-999.0,89,0.00,,,4.15,Wunderground v.1.12,2013-01-30 15:20:00,
2013-01-30 10:25:00,67.1,63.7,29.66,East,82,2.0,-999.0,89,0.00,,,4.15,Wunderground v.1.12,2013-01-30 15:25:00,
2013-01-30 10:30:00,66.9,63.6,29.66,North,350,0.0,-999.0,89,0.00,,,4.15,Wunderground v.1.12,2013-01-30 15:30:00,
2013-01-30 10:35:00,66.9,63.6,29.66,ESE,120,3.0,-999.0,89,0.00,,,4.15,Wunderground v.1.12,2013-01-30 15:35:00,
2013-01-30 10:40:00,66.9,63.2,29.66,NNE,12,0.0,-999.0,88,0.00,,,4.15,Wunderground v.1.12,2013-01-30 15:40:00,
2013-01-30 10:45:00,67.1,63.4,29.66,ESE,102,2.0,-999.0,88,0.00,,,4.15,Wunderground v.1.12,2013-01-30 15:45:00,
2013-01-30 10:50:00,67.1,63.4,29.66,NE,46,0.0,-999.0,88,0.00,,,4.15,Wunderground v.1.12,2013-01-30 15:50:00,
2013-01-30 10:56:00,67.1,63.4,29.66,WNW,283,0.0,-999.0,88,0.00,,,4.15,Wunderground v.1.12,2013-01-30 15:56:00,
2013-01-30 11:01:00,67.3,63.6,29.65,NE,55,0.0,-999.0,88,0.00,,,4.15,Wunderground v.1.12,2013-01-30 16:01:00,
2013-01-30 11:06:00,67.3,63.6,29.65,ENE,74,1.0,-999.0,88,0.00,,,4.15,Wunderground v.1.12,2013-01-30 16:06:00,
2013-01-30 11:11:00,67.4,63.4,29.65,WNW,301,8.0,-999.0,87,0.00,,,4.15,Wunderground v.1.12,2013-01-30 16:11:00,
2013-01-30 11:16:00,67.4,63.4,29.64,West,269,5.0,-999.0,87,0.00,,,4.15,Wunderground v.1.12,2013-01-30 16:16:00,
2013-01-30 11:21:00,67.6,63.3,29.64,WSW,254,0.0,-999.0,86,0.00,,,4.15,Wunderground v.1.12,2013-01-30 16:21:00,
2013-01-30 11:26:00,67.6,63.3,29.64,East,94,11.0,-999.0,86,0.00,,,4.15,Wunderground v.1.12,2013-01-30 16:26:00,
2013-01-30 11:31:00,67.6,63.3,29.63,East,95,0.0,-999.0,86,0.00,,,4.15,Wunderground v.1.12,2013-01-30 16:31:00,
2013-01-30 11:36:00,67.6,63.3,29.63,SE,127,7.0,-999.0,86,0.00,,,4.15,Wunderground v.1.12,2013-01-30 16:36:00,
2013-01-30 11:41:00,67.6,63.3,29.63,WNW,287,1.0,-999.0,86,0.00,,,4.15,Wunderground v.1.12,2013-01-30 16:41:00,
2013-01-30 11:46:00,67.6,62.9,29.62,SE,139,0.0,-999.0,85,0.00,,,4.15,Wunderground v.1.12,2013-01-30 16:46:00,
2013-01-30 11:51:00,67.8,63.1,29.62,West,270,5.0,-999.0,85,0.00,,,4.15,Wunderground v.1.12,2013-01-30 16:51:00,
2013-01-30 11:56:00,67.8,63.1,29.62,SE,126,6.0,-999.0,85,0.00,,,4.15,Wunderground v.1.12,2013-01-30 16:56:00,
2013-01-30 12:01:00,67.8,63.1,29.62,NNE,29,6.0,-999.0,85,0.00,,,4.15,Wunderground v.1.12,2013-01-30 17:01:00,
2013-01-30 12:06:00,67.8,63.1,29.62,NNE,20,6.0,-999.0,85,0.00,,,4.15,Wunderground v.1.12,2013-01-30 17:06:00,
2013-01-30 12:11:00,67.9,63.2,29.62,NE,54,1.0,-999.0,85,0.00,,,4.15,Wunderground v.1.12,2013-01-30 17:11:00,
2013-01-30 12:16:00,67.9,63.2,29.60,NE,46,0.0,-999.0,85,0.00,,,4.15,Wunderground v.1.12,2013-01-30 17:16:00,
2013-01-30 12:21:00,67.9,63.2,29.60,East,94,3.0,-999.0,85,0.00,,,4.15,Wunderground v.1.12,2013-01-30 17:21:00,
2013-01-30 12:26:00,67.9,63.2,29.59,ESE,122,6.0,-999.0,85,0.00,,,4.15,Wunderground v.1.12,2013-01-30 17:26:00,
2013-01-30 12:31:00,67.9,63.2,29.59,ESE,106,7.0,-999.0,85,0.00,,,4.15,Wunderground v.1.12,2013-01-30 17:31:00,
2013-01-30 12:36:00,67.9,63.2,29.59,NNE,19,2.0,-999.0,85,0.00,,,4.15,Wunderground v.1.12,2013-01-30 17:36:00,
2013-01-30 12:41:00,67.8,63.1,29.58,ENE,78,2.0,-999.0,85,0.00,,,4.15,Wunderground v.1.12,2013-01-30 17:41:00,
2013-01-30 12:46:00,67.8,63.1,29.58,NNE,31,0.0,-999.0,85,0.00,,,4.15,Wunderground v.1.12,2013-01-30 17:46:00,
2013-01-30 12:51:00,67.8,63.1,29.58,NE,38,0.0,-999.0,85,0.00,,,4.15,Wunderground v.1.12,2013-01-30 17:51:00,
2013-01-30 12:56:00,67.8,63.1,29.57,SE,143,0.0,-999.0,85,0.00,,,4.15,Wunderground v.1.12,2013-01-30 17:56:00,
2013-01-30 13:01:00,67.8,63.1,29.57,East,92,2.0,-999.0,85,0.00,,,4.15,Wunderground v.1.12,2013-01-30 18:01:00,
2013-01-30 13:06:00,67.8,63.1,29.57,SW,228,2.0,-999.0,85,0.00,,,4.15,Wunderground v.1.12,2013-01-30 18:06:00,
2013-01-30 13:12:00,67.8,63.1,29.54,WNW,288,1.0,-999.0,85,0.00,,,4.15,Wunderground v.1.12,2013-01-30 18:12:00,
2013-01-30 13:17:00,67.8,63.1,29.54,North,350,0.0,-999.0,85,0.00,,,4.15,Wunderground v.1.12,2013-01-30 18:17:00,
2013-01-30 13:22:00,67.8,63.5,29.54,NW,325,1.0,-999.0,86,0.00,,,4.15,Wunderground v.1.12,2013-01-30 18:22:00,
2013-01-30 13:27:00,67.6,63.3,29.55,NNW,336,0.0,-999.0,86,0.00,,,4.15,Wunderground v.1.12,2013-01-30 18:27:00,
2013-01-30 13:32:00,67.6,63.3,29.55,East,96,0.0,-999.0,86,0.00,,,4.15,Wunderground v.1.12,2013-01-30 18:32:00,
2013-01-30 13:37:00,67.6,63.3,29.55,WNW,300,0.0,-999.0,86,0.00,,,4.15,Wunderground v.1.12,2013-01-30 18:37:00,
2013-01-30 13:42:00,67.3,63.0,29.56,WNW,290,0.0,-999.0,86,0.00,,,4.15,Wunderground v.1.12,2013-01-30 18:42:00,
2013-01-30 13:47:00,66.3,61.7,29.56,WNW,284,0.0,-999.0,85,0.00,,,4.15,Wunderground v.1.12,2013-01-30 18:47:00,
2013-01-30 13:52:00,65.6,60.6,29.56,WNW,284,0.0,-999.0,84,0.00,,,4.15,Wunderground v.1.12,2013-01-30 18:52:00,
2013-01-30 13:57:00,64.8,59.9,29.57,WSW,253,0.0,-999.0,84,0.14,,,4.17,Wunderground v.1.12,2013-01-30 18:57:00,
2013-01-30 14:02:00,64.3,59.7,29.57,West,270,0.0,-999.0,85,0.06,,,4.17,Wunderground v.1.12,2013-01-30 19:02:00,
2013-01-30 14:07:00,63.7,59.1,29.57,West,270,0.0,-999.0,85,0.04,,,4.17,Wunderground v.1.12,2013-01-30 19:07:00,
2013-01-30 14:12:00,63.2,58.9,29.56,SE,127,0.0,-999.0,86,0.00,,,4.17,Wunderground v.1.12,2013-01-30 19:12:00,
2013-01-30 14:17:00,62.9,59.0,29.56,SE,127,0.0,-999.0,87,0.00,,,4.17,Wunderground v.1.12,2013-01-30 19:17:00,
2013-01-30 14:22:00,62.6,58.7,29.56,ESE,112,0.0,-999.0,87,0.00,,,4.17,Wunderground v.1.12,2013-01-30 19:22:00,
2013-01-30 14:27:00,62.3,58.7,29.56,NNW,345,0.0,-999.0,88,0.00,,,4.17,Wunderground v.1.12,2013-01-30 19:27:00,
2013-01-30 14:32:00,62.1,58.5,29.56,SW,221,0.0,-999.0,88,0.00,,,4.17,Wunderground v.1.12,2013-01-30 19:32:00,
2013-01-30 14:37:00,62.0,58.7,29.56,SW,221,0.0,-999.0,89,0.00,,,4.17,Wunderground v.1.12,2013-01-30 19:37:00,
2013-01-30 14:42:00,61.8,58.5,29.53,SW,221,0.0,-999.0,89,0.00,,,4.17,Wunderground v.1.12,2013-01-30 19:42:00,
2013-01-30 14:47:00,61.6,58.3,29.53,SW,221,0.0,-999.0,89,0.00,,,4.17,Wunderground v.1.12,2013-01-30 19:47:00,
2013-01-30 14:52:00,61.5,58.5,29.53,SW,221,0.0,-999.0,90,0.00,,,4.17,Wunderground v.1.12,2013-01-30 19:52:00,
2013-01-30 14:57:00,61.5,58.5,29.53,SW,221,0.0,-999.0,90,0.00,,,4.17,Wunderground v.1.12,2013-01-30 19:57:00,
2013-01-30 15:02:00,61.3,58.3,29.53,SW,221,0.0,-999.0,90,0.00,,,4.17,Wunderground v.1.12,2013-01-30 20:02:00,
2013-01-30 15:07:00,61.3,58.3,29.53,SW,221,0.0,-999.0,90,0.00,,,4.17,Wunderground v.1.12,2013-01-30 20:07:00,
2013-01-30 15:12:00,61.3,58.3,29.54,SW,221,0.0,-999.0,90,0.00,,,4.17,Wunderground v.1.12,2013-01-30 20:12:00,
2013-01-30 15:17:00,61.2,58.6,29.54,SW,221,0.0,-999.0,91,0.00,,,4.17,Wunderground v.1.12,2013-01-30 20:17:00,
2013-01-30 15:22:00,61.2,58.6,29.54,SW,221,0.0,-999.0,91,0.00,,,4.17,Wunderground v.1.12,2013-01-30 20:22:00,
2013-01-30 15:27:00,61.0,58.4,29.54,SW,221,0.0,-999.0,91,0.00,,,4.17,Wunderground v.1.12,2013-01-30 20:27:00,
2013-01-30 15:32:00,61.0,58.4,29.54,SW,221,0.0,-999.0,91,0.00,,,4.17,Wunderground v.1.12,2013-01-30 20:32:00,
2013-01-30 15:37:00,60.9,58.3,29.54,WSW,254,0.0,-999.0,91,0.00,,,4.17,Wunderground v.1.12,2013-01-30 20:37:00,
2013-01-30 15:42:00,60.9,58.3,29.54,WSW,256,0.0,-999.0,91,0.00,,,4.17,Wunderground v.1.12,2013-01-30 20:42:00,
2013-01-30 15:47:00,60.7,58.4,29.54,WSW,256,0.0,-999.0,92,0.00,,,4.17,Wunderground v.1.12,2013-01-30 20:47:00,
2013-01-30 15:52:00,60.4,57.8,29.54,WNW,298,0.0,-999.0,91,0.00,,,4.17,Wunderground v.1.12,2013-01-30 20:52:00,
2013-01-30 15:57:00,59.8,57.2,29.55,WNW,300,0.0,-999.0,91,0.00,,,4.17,Wunderground v.1.12,2013-01-30 20:57:00,
2013-01-30 16:02:00,59.2,56.6,29.55,WNW,295,0.0,-999.0,91,0.00,,,4.17,Wunderground v.1.12,2013-01-30 21:02:00,
2013-01-30 16:07:00,58.9,56.3,29.55,WNW,295,0.0,-999.0,91,0.00,,,4.17,Wunderground v.1.12,2013-01-30 21:07:00,
2013-01-30 16:12:00,58.6,56.0,29.55,WNW,295,0.0,-999.0,91,0.00,,,4.17,Wunderground v.1.12,2013-01-30 21:12:00,
2013-01-30 16:17:00,58.3,55.7,29.55,WNW,298,3.0,-999.0,91,0.00,,,4.17,Wunderground v.1.12,2013-01-30 21:17:00,
2013-01-30 16:22:00,57.5,54.6,29.55,WNW,298,0.0,-999.0,90,0.00,,,4.17,Wunderground v.1.12,2013-01-30 21:22:00,
2013-01-30 16:27:00,56.7,53.5,29.58,WNW,293,0.0,-999.0,89,0.00,,,4.17,Wunderground v.1.12,2013-01-30 21:27:00,
2013-01-30 16:32:00,56.3,53.1,29.58,WNW,294,0.0,-999.0,89,0.00,,,4.17,Wunderground v.1.12,2013-01-30 21:32:00,
2013-01-30 16:37:00,55.7,52.5,29.58,NW,314,0.0,-999.0,89,0.00,,,4.17,Wunderground v.1.12,2013-01-30 21:37:00,
2013-01-30 16:42:00,55.3,52.1,29.59,WNW,294,0.0,-999.0,89,0.00,,,4.17,Wunderground v.1.12,2013-01-30 21:42:00,
2013-01-30 16:47:00,55.0,51.8,29.59,WNW,293,0.0,-999.0,89,0.00,,,4.17,Wunderground v.1.12,2013-01-30 21:47:00,
2013-01-30 16:52:00,54.5,51.3,29.59,West,274,0.0,-999.0,89,0.00,,,4.17,Wunderground v.1.12,2013-01-30 21:52:00,
2013-01-30 16:57:00,54.1,50.9,29.61,WNW,294,2.0,-999.0,89,0.00,,,4.17,Wunderground v.1.12,2013-01-30 21:57:00,
2013-01-30 17:02:00,53.8,50.6,29.61,WNW,294,0.0,-999.0,89,0.00,,,4.17,Wunderground v.1.12,2013-01-30 22:02:00,
2013-01-30 17:07:00,53.5,50.3,29.61,NW,326,0.0,-999.0,89,0.00,,,4.17,Wunderground v.1.12,2013-01-30 22:07:00,
2013-01-30 17:12:00,53.2,50.0,29.62,NNW,328,0.0,-999.0,89,0.00,,,4.17,Wunderground v.1.12,2013-01-30 22:12:00,
2013-01-30 17:17:00,52.9,49.7,29.62,NNW,328,0.0,-999.0,89,0.00,,,4.17,Wunderground v.1.12,2013-01-30 22:17:00,
2013-01-30 17:22:00,52.6,49.4,29.62,NNW,328,0.0,-999.0,89,0.00,,,4.17,Wunderground v.1.12,2013-01-30 22:22:00,
2013-01-30 17:28:00,52.5,49.4,29.61,NW,326,0.0,-999.0,89,0.00,,,4.17,Wunderground v.1.12,2013-01-30 22:28:00,
2013-01-30 17:33:00,52.3,49.2,29.61,NNW,328,0.0,-999.0,89,0.39,,,4.45,Wunderground v.1.12,2013-01-30 22:33:00,
2013-01-30 17:39:00,52.0,49.2,29.61,NNW,328,0.0,-999.0,90,0.08,,,4.45,Wunderground v.1.12,2013-01-30 22:39:00,
2013-01-30 17:44:00,51.9,49.1,29.61,NNW,328,0.0,-999.0,90,-99.99,,,4.75,Wunderground v.1.12,2013-01-30 22:44:00,
2013-01-30 17:49:00,51.7,48.9,29.61,NNW,328,0.0,-999.0,90,0.26,,,5.45,Wunderground v.1.12,2013-01-30 22:49:00,
2013-01-30 17:54:00,51.7,48.9,29.61,NW,326,0.0,-999.0,90,0.08,,,5.45,Wunderground v.1.12,2013-01-30 22:54:00,
2013-01-30 17:59:00,51.6,48.8,29.59,NW,326,0.0,-999.0,90,0.05,,,5.45,Wunderground v.1.12,2013-01-30 22:59:00,
2013-01-30 18:04:00,51.4,48.6,29.59,NW,326,0.0,-999.0,90,0.00,,,5.45,Wunderground v.1.12,2013-01-30 23:04:00,
2013-01-30 18:09:00,51.4,48.6,29.59,NW,326,0.0,-999.0,90,0.00,,,5.45,Wunderground v.1.12,2013-01-30 23:09:00,
2013-01-30 18:14:00,51.3,48.5,29.59,NW,326,0.0,-999.0,90,0.00,,,5.45,Wunderground v.1.12,2013-01-30 23:14:00,
2013-01-30 18:19:00,51.3,48.5,29.59,NW,325,0.0,-999.0,90,0.00,,,5.45,Wunderground v.1.12,2013-01-30 23:19:00,
2013-01-30 18:24:00,51.1,48.3,29.59,NW,325,0.0,-999.0,90,0.00,,,5.45,Wunderground v.1.12,2013-01-30 23:24:00,
2013-01-30 18:30:00,51.0,48.2,29.60,NW,325,0.0,-999.0,90,0.00,,,5.45,Wunderground v.1.12,2013-01-30 23:30:00,
2013-01-30 18:35:00,50.8,48.0,29.60,NW,326,0.0,-999.0,90,0.00,,,5.45,Wunderground v.1.12,2013-01-30 23:35:00,
2013-01-30 18:40:00,50.5,47.7,29.60,NW,325,0.0,-999.0,90,0.00,,,5.45,Wunderground v.1.12,2013-01-30 23:40:00,
2013-01-30 18:45:00,50.4,47.6,29.61,NW,326,0.0,-999.0,90,0.00,,,5.45,Wunderground v.1.12,2013-01-30 23:45:00,
2013-01-30 18:50:00,50.1,47.3,29.61,NW,325,0.0,-999.0,90,0.00,,,5.45,Wunderground v.1.12,2013-01-30 23:50:00,
2013-01-30 18:55:00,49.9,47.1,29.61,NNW,328,0.0,-999.0,90,0.00,,,5.45,Wunderground v.1.12,2013-01-30 23:55:00,
2013-01-30 19:00:00,49.6,46.8,29.62,NNW,328,0.0,-999.0,90,0.00,,,5.45,Wunderground v.1.12,2013-01-31 00:00:00,
2013-01-30 19:05:00,49.5,46.7,29.62,NNW,328,0.0,-999.0,90,0.00,,,5.45,Wunderground v.1.12,2013-01-31 00:05:00,
2013-01-30 19:10:00,49.4,46.6,29.62,NNW,328,0.0,-999.0,90,0.00,,,5.45,Wunderground v.1.12,2013-01-31 00:10:00,
2013-01-30 19:15:00,49.2,46.4,29.64,NNW,328,0.0,-999.0,90,0.00,,,5.45,Wunderground v.1.12,2013-01-31 00:15:00,
2013-01-30 19:20:00,49.1,46.3,29.64,NNW,328,0.0,-999.0,90,0.00,,,5.45,Wunderground v.1.12,2013-01-31 00:20:00,
2013-01-30 19:25:00,48.9,46.1,29.64,NNW,328,0.0,-999.0,90,14.40,,,5.45,Wunderground v.1.12,2013-01-31 00:25:00,
2013-01-30 19:30:00,48.8,46.0,29.63,NNW,328,0.0,-999.0,90,0.12,,,5.51,Wunderground v.1.12,2013-01-31 00:30:00,
2013-01-30 19:35:00,48.6,45.8,29.63,NNW,328,0.0,-999.0,90,0.06,,,5.51,Wunderground v.1.12,2013-01-31 00:35:00,
2013-01-30 19:40:00,48.6,46.1,29.63,NNW,328,0.0,-999.0,91,0.04,,,5.51,Wunderground v.1.12,2013-01-31 00:40:00,
2013-01-30 19:45:00,48.6,46.1,29.64,NNW,328,0.0,-999.0,91,0.00,,,5.51,Wunderground v.1.12,2013-01-31 00:45:00,
2013-01-30 19:50:00,48.5,46.0,29.64,NNW,328,0.0,-999.0,91,0.00,,,5.51,Wunderground v.1.12,2013-01-31 00:50:00,
2013-01-30 19:56:00,48.5,46.0,29.64,NNW,328,0.0,-999.0,91,0.00,,,5.51,Wunderground v.1.12,2013-01-31 00:56:00,
2013-01-30 20:01:00,48.5,46.0,29.65,NW,324,0.0,-999.0,91,0.00,,,5.51,Wunderground v.1.12,2013-01-31 01:01:00,
2013-01-30 20:06:00,48.3,45.8,29.65,NW,324,0.0,-999.0,91,0.00,,,5.51,Wunderground v.1.12,2013-01-31 01:06:00,
2013-01-30 20:11:00,48.2,45.7,29.64,NW,324,0.0,-999.0,91,0.00,,,5.51,Wunderground v.1.12,2013-01-31 01:11:00,
2013-01-30 20:16:00,48.2,45.7,29.64,NW,324,0.0,-999.0,91,0.00,,,5.51,Wunderground v.1.12,2013-01-31 01:16:00,
2013-01-30 20:21:00,48.0,45.5,29.64,NW,321,0.0,-999.0,91,0.00,,,5.51,Wunderground v.1.12,2013-01-31 01:21:00,
2013-01-30 20:26:00,47.9,45.4,29.64,NNE,12,0.0,-999.0,91,0.00,,,5.51,Wunderground v.1.12,2013-01-31 01:26:00,
2013-01-30 20:31:00,47.6,45.1,29.64,North,9,0.0,-999.0,91,0.00,,,5.51,Wunderground v.1.12,2013-01-31 01:31:00,
2013-01-30 20:36:00,47.6,45.1,29.64,North,9,0.0,-999.0,91,0.00,,,5.51,Wunderground v.1.12,2013-01-31 01:36:00,
2013-01-30 20:41:00,47.4,44.9,29.64,North,9,0.0,-999.0,91,0.00,,,5.51,Wunderground v.1.12,2013-01-31 01:41:00,
2013-01-30 20:46:00,47.4,44.9,29.64,North,7,0.0,-999.0,91,0.00,,,5.51,Wunderground v.1.12,2013-01-31 01:46:00,
2013-01-30 20:51:00,47.4,44.9,29.64,North,7,0.0,-999.0,91,0.00,,,5.51,Wunderground v.1.12,2013-01-31 01:51:00,
2013-01-30 20:56:00,47.4,45.2,29.65,NNE,12,0.0,-999.0,92,0.00,,,5.51,Wunderground v.1.12,2013-01-31 01:56:00,
2013-01-30 21:01:00,47.6,45.4,29.65,NW,319,0.0,-999.0,92,16.00,,,5.53,Wunderground v.1.12,2013-01-31 02:01:00,
2013-01-30 21:06:00,47.4,45.2,29.65,NW,319,0.0,-999.0,92,0.12,,,5.55,Wunderground v.1.12,2013-01-31 02:06:00,
2013-01-30 21:11:00,47.4,45.2,29.64,WNW,298,0.0,-999.0,92,0.06,,,5.55,Wunderground v.1.12,2013-01-31 02:11:00,
2013-01-30 21:16:00,47.3,45.1,29.64,WNW,301,0.0,-999.0,92,0.04,,,5.56,Wunderground v.1.12,2013-01-31 02:16:00,
2013-01-30 21:21:00,47.1,44.9,29.64,WNW,301,0.0,-999.0,92,0.04,,,5.56,Wunderground v.1.12,2013-01-31 02:21:00,
2013-01-30 21:27:00,47.1,44.9,29.65,WNW,300,0.0,-999.0,92,0.04,,,5.56,Wunderground v.1.12,2013-01-31 02:27:00,
2013-01-30 21:32:00,47.0,44.8,29.65,WNW,300,0.0,-999.0,92,0.04,,,5.56,Wunderground v.1.12,2013-01-31 02:32:00,
2013-01-30 21:38:00,47.0,44.8,29.65,WNW,297,0.0,-999.0,92,0.00,,,5.56,Wunderground v.1.12,2013-01-31 02:38:00,
2013-01-30 21:44:00,47.0,44.8,29.66,WNW,297,0.0,-999.0,92,0.00,,,5.56,Wunderground v.1.12,2013-01-31 02:44:00,
2013-01-30 21:49:00,47.0,44.5,29.66,SW,235,0.0,-999.0,91,0.00,,,5.56,Wunderground v.1.12,2013-01-31 02:49:00,
2013-01-30 21:54:00,46.8,44.3,29.66,West,281,0.0,-999.0,91,0.00,,,5.56,Wunderground v.1.12,2013-01-31 02:54:00,
2013-01-30 21:59:00,46.8,44.3,29.67,West,281,5.0,-999.0,91,0.00,,,5.56,Wunderground v.1.12,2013-01-31 02:59:00,
2013-01-30 22:04:00,45.8,42.4,29.67,WNW,287,0.0,-999.0,88,0.00,,,5.56,Wunderground v.1.12,2013-01-31 03:04:00,
2013-01-30 22:10:00,45.4,41.8,29.67,WNW,286,3.0,-999.0,87,0.00,,,5.56,Wunderground v.1.12,2013-01-31 03:10:00,
2013-01-30 22:15:00,44.9,41.3,29.71,WNW,295,5.0,-999.0,87,0.00,,,5.56,Wunderground v.1.12,2013-01-31 03:15:00,
2013-01-30 22:20:00,44.8,40.9,29.71,West,270,1.0,-999.0,86,0.00,,,5.56,Wunderground v.1.12,2013-01-31 03:20:00,
2013-01-30 22:25:00,44.6,40.7,29.71,WNW,290,3.0,-999.0,86,0.00,,,5.56,Wunderground v.1.12,2013-01-31 03:25:00,
2013-01-30 22:30:00,44.5,40.6,29.73,West,270,0.0,-999.0,86,0.00,,,5.56,Wunderground v.1.12,2013-01-31 03:30:00,
2013-01-30 22:35:00,44.5,40.3,29.73,West,278,0.0,-999.0,85,0.00,,,5.56,Wunderground v.1.12,2013-01-31 03:35:00,
2013-01-30 22:40:00,44.3,40.1,29.73,West,269,0.0,-999.0,85,0.00,,,5.56,Wunderground v.1.12,2013-01-31 03:40:00,
2013-01-30 22:45:00,44.2,39.7,29.73,WNW,293,2.0,-999.0,84,0.00,,,5.56,Wunderground v.1.12,2013-01-31 03:45:00,
2013-01-30 22:50:00,44.1,39.3,29.73,West,270,2.0,-999.0,83,0.00,,,5.56,Wunderground v.1.12,2013-01-31 03:50:00,
2013-01-30 22:55:00,44.1,39.3,29.73,NW,325,2.0,-999.0,83,0.00,,,5.56,Wunderground v.1.12,2013-01-31 03:55:00,
2013-01-30 23:00:00,44.1,39.3,29.75,West,259,2.0,-999.0,83,0.00,,,0.00,Wunderground v.1.12,2013-01-31 04:00:00,
2013-01-30 23:05:00,43.9,38.8,29.75,West,276,0.0,-999.0,82,0.00,,,0.00,Wunderground v.1.12,2013-01-31 04:05:00,
2013-01-30 23:10:00,43.9,38.8,29.75,WNW,298,3.0,-999.0,82,0.00,,,0.00,Wunderground v.1.12,2013-01-31 04:10:00,
2013-01-30 23:16:00,43.5,38.1,29.75,WNW,293,3.0,-999.0,81,0.00,,,0.00,Wunderground v.1.12,2013-01-31 04:16:00,
2013-01-30 23:20:00,42.9,36.5,29.75,West,267,6.0,-999.0,78,0.00,,,0.00,Wunderground v.1.12,2013-01-31 04:20:00,
2013-01-30 23:25:00,42.8,36.1,29.75,WNW,297,6.0,-999.0,77,0.00,,,0.00,Wunderground v.1.12,2013-01-31 04:25:00,
2013-01-30 23:30:00,42.3,35.6,29.78,WNW,284,5.0,-999.0,77,0.00,,,0.00,Wunderground v.1.12,2013-01-31 04:30:00,
2013-01-30 23:35:00,42.2,35.5,29.78,East,96,4.0,-999.0,77,0.00,,,0.00,Wunderground v.1.12,2013-01-31 04:35:00,
2013-01-30 23:41:00,41.9,34.9,29.78,WNW,293,1.0,-999.0,76,0.00,,,0.00,Wunderground v.1.12,2013-01-31 04:41:00,
2013-01-30 23:46:00,41.8,34.8,29.79,West,264,0.0,-999.0,76,0.00,,,0.00,Wunderground v.1.12,2013-01-31 04:46:00,
2013-01-30 23:51:00,41.6,34.6,29.79,West,270,3.0,-999.0,76,0.00,,,0.00,Wunderground v.1.12,2013-01-31 04:51:00,
2013-01-30 23:56:00,41.5,34.5,29.79,West,274,3.0,-999.0,76,0.00,,,0.00,Wunderground v.1.12,2013-01-31 04:56:00,